This demonstration page uses our WeatherBlox Daily Observations layout. Learn more.

39.92423, -83.80882

Hourly Observations for September 22, 2019

Temp ( °F °C ) Dew Point ( °F °C ) Humidity (%) Winds ( mph kmh ) Pressure ( in mb ) Visibility ( mi km ) Precip ( " mm )
12:56 am 00:56 Clear 68 20 64 17.8 87 87 S 3 6 30.15 1021 10 16.09344 0 0
1:56 am 01:56 Clear 69 20.6 63 17.2 81 81 S 7 11 30.12 1020 10 16.09344 0 0
2:56 am 02:56 Clear 69 20.6 63 17.2 81 81 S 5 7 30.12 1020 10 16.09344 0 0
3:56 am 03:56 Clear 69 20.6 63 17.2 81 81 SSW 5 7 30.12 1020 10 16.09344 0 0
4:56 am 04:56 Clear 69 20.6 62 16.7 78 78 S 5 7 30.12 1020 10 16.09344 0 0
5:56 am 05:56 Clear 69 20.6 62 16.7 78 78 SSW 5 7 30.12 1020 10 16.09344 0 0
6:56 am 06:56 Clear 67 19.4 61 16.1 81 81 S 3 6 30.12 1020 10 16.09344 0 0
7:56 am 07:56 Sunny 67 19.4 61 16.1 81 81 S 6 9 30.12 1020 10 16.09344 0 0
8:56 am 08:56 Sunny 69 20.6 62 16.7 78 78 S 6 9 30.12 1020 10 16.09344 0 0
9:56 am 09:56 Sunny 74 23.3 62 16.7 67 67 SSW 10 17 30.12 1020 10 16.09344 0 0
10:56 am 10:56 Sunny 78 25.6 62 16.7 58 58 SW 10 17 30.12 1020 10 16.09344 0 0
11:56 am 11:56 Sunny 82 27.8 62 16.7 51 51 SW 13 20 30.09 1019 10 16.09344 0 0
12:56 pm 12:56 Sunny 84 28.9 58 14.4 41 41 SW 21 33 30.06 1018 10 16.09344 0 0
1:56 pm 13:56 Sunny 86 30 59 15 40 40 SW 18 30 30.03 1017 10 16.09344 0 0
2:56 pm 14:56 Sunny 87 30.6 57 13.9 36 36 SSW 14 22 30 1016 10 16.09344 0 0
3:56 pm 15:56 Sunny 87 30.6 56 13.3 35 35 SSW 18 30 29.97 1015 10 16.09344 0 0
4:56 pm 16:56 Sunny 87 30.6 58 14.4 37 37 SSW 13 20 29.97 1015 10 16.09344 0 0
5:56 pm 17:56 Sunny 85 29.4 58 14.4 40 40 SW 12 19 29.97 1015 10 16.09344 0 0
6:56 pm 18:56 Sunny 82 27.8 59 15 46 46 SSW 6 9 29.94 1014 10 16.09344 0 0
7:56 pm 19:56 Clear 78 25.6 59 15 52 52 S 6 9 29.94 1014 10 16.09344 0 0
8:56 pm 20:56 Clear 76 24.4 59 15 56 56 SSW 6 9 29.97 1015 10 16.09344 0 0
9:56 pm 21:56 Clear 75 23.9 58 14.4 55 55 SSW 7 11 29.97 1015 10 16.09344 0 0
10:56 pm 22:56 Clear 75 23.9 58 14.4 55 55 SSW 8 13 29.94 1014 10 16.09344 0 0
11:56 pm 23:56 Clear 73 22.8 58 14.4 59 59 SSW 10 17 29.94 1014 10 16.09344 0 0

Powered by AerisWeather